Flag for Switzerland Weather past 2 weeks in Pratteln, Basel-Land, Switzerland

Now
63 °F

Overcast.


Feels Like: 63 °F
Forecast: 56 / 72 °F
Wind: 5 mph from South

Location: Bale-Mulhouse

Current Time: Aug 30, 2014 at 12:55:47 AM

Latest Report: Aug 30, 2014 at 12:30 AM


Visibility: N/A

Pressure: 30.12 "Hg

Humidity: 94%

Dew point: 61 °F

Location of PrattelnLocation

Historic Weather in Pratteln — Graph

°F

Pratteln temperature yesterday

Maximum temperature yesterday: 73 °F (at 1:30 PM)
Minimum temperature yesterday: 61 °F (at 12:00 AM)
Average temperature yesterday: 65 °F

Past Weeks' High & Low Weather Summary

 TemperatureHumidityPressure
High79 °F (Aug 28, 6:00 PM)100% (Aug 15, 2:00 AM)30.18 "Hg (Aug 15, 2:00 AM)
Low46 °F (Aug 21, 6:30 AM)40% (Aug 22, 1:30 PM)29.74 "Hg (Aug 26, 5:00 PM)
Average61 °F77%30.02 "Hg
* Reported Aug 14 11:00 PM — Aug 29 11:30 PM, Pratteln, Weather by CustomWeather, © 2014

Note: Actual official high and low records may vary slightly from our data, if they occured in-between our weather recording intervals... More about our weather records

Advertising

Pratteln weather history for previous 24 hours

 ConditionsComfort  
Time TempWeatherWind HumidityBarometerVisibility
11:30 PM
Aug 29
61 °FPartly cloudy.2 mph94%30.09 "HgN/A
11:00 PM63 °FPartly cloudy.5 mph88%30.09 "HgN/A
9:00 PM66 °FScattered showers. Broken clouds.3 mph83%30.07 "HgN/A
8:30 PM66 °FPartly sunny.7 mph83%30.07 "HgN/A
8:00 PM66 °FPartly sunny.3 mph83%30.07 "HgN/A
7:30 PM66 °FPartly sunny.6 mph83%30.07 "HgN/A
7:00 PM66 °FScattered showers. Broken clouds.6 mph83%30.07 "HgN/A
6:30 PM68 °FSprinkles. Broken clouds.8 mph83%30.07 "HgN/A
6:00 PM70 °FScattered showers. Broken clouds.5 mph83%30.07 "HgN/A
5:30 PM70 °FPartly sunny.6 mph83%30.07 "HgN/A
5:00 PM68 °FPartly sunny.6 mph88%30.07 "HgN/A
4:00 PM68 °FSprinkles. Partly sunny.7 mph88%30.07 "HgN/A
3:30 PM70 °FSprinkles. Scattered clouds.6 mph83%30.07 "Hg4 mi
3:00 PM70 °FSprinkles. Broken clouds.8 mph83%30.07 "Hg4 mi
2:30 PM73 °FScattered showers. Broken clouds.5 mph69%30.07 "HgN/A
2:00 PM73 °FScattered showers. Partly sunny.5 mph69%30.07 "HgN/A
1:30 PM73 °FPartly sunny.3 mph74%30.07 "HgN/A
1:00 PM72 °FPartly sunny.2 mph73%30.07 "HgN/A
12:30 PM72 °FScattered clouds.2 mph73%30.07 "HgN/A
12:00 PM70 °FScattered clouds.2 mph78%30.07 "HgN/A
11:30 AM68 °FPartly sunny.2 mph83%30.07 "HgN/A
11:00 AM66 °FBroken clouds.No wind88%30.07 "HgN/A
10:30 AM66 °FBroken clouds.6 mph88%30.07 "HgN/A
10:00 AM64 °FBroken clouds.3 mph94%30.07 "HgN/A
9:30 AM63 °FBroken clouds.3 mph94%30.07 "HgN/A
9:00 AM63 °FLight rain. Partly sunny.3 mph94%30.07 "HgN/A
8:30 AM63 °FLight rain. Partly sunny.5 mph94%30.07 "HgN/A
8:00 AM61 °FRain. Partly sunny.5 mph94%30.07 "HgN/A
7:30 AM61 °FLight rain. Passing clouds.3 mph94%30.07 "Hg6 mi
7:00 AM63 °FLight rain. Partly cloudy.2 mph88%30.07 "Hg6 mi
6:30 AM63 °FLight rain. Partly cloudy.5 mph88%30.04 "Hg6 mi
6:00 AM63 °FClear.3 mph88%30.04 "Hg10 mi
5:30 AM63 °FPassing clouds.6 mph88%30.04 "HgN/A
5:00 AM63 °FClear.5 mph88%30.04 "Hg10 mi
4:30 AM63 °FPassing clouds.5 mph88%30.04 "HgN/A
4:00 AM63 °FClear.6 mph88%30.04 "HgN/A
3:30 AM61 °FClear.3 mph94%30.04 "HgN/A
3:00 AM61 °FClear.6 mph94%30.04 "HgN/A
2:30 AM63 °FClear.7 mph88%30.07 "HgN/A
2:00 AM61 °FClear.6 mph94%30.07 "HgN/A
1:30 AM61 °FClear.6 mph94%30.07 "HgN/A
1:00 AM61 °FClear.3 mph88%30.07 "HgN/A
12:30 AM61 °FClear.3 mph94%30.07 "HgN/A
12:00 AM61 °FPassing clouds.2 mph88%30.07 "HgN/A
Weather by CustomWeather, © 2014

See weather overviewHow to use our weather pages